loading
DOY 175 | 2024-06-23T10:25:07Z
Showing default

LEGION 1, 59625

Orbit data source: Space-Track

LEGION 1, 59625 is a payload satellite owned by Maxar Intel (US) in LEO that was launched on Thu, 02 May 2024 UTC via a Falcon 9 launch vehicle from the Air Force Western Test Range (AFWTR). Payloads include a variety of satellites, spacecraft, and rockets equipped with specific instruments for various scientific and technological missions. These include communications satellites like Starlink; space stations such as the ISS; scientific satellites like the Hubble; Earth observation satellites from companies like Planet Labs, Umbra, and HawkEye 360; GPS; miniature CubeSats for education and research; and military/defense satellites.

Loading next visibility...
Loading greatness...
LEGION 1 details
NORAD ID59625
COSPAR ID
2024-081A
Orbit
LEO
Last TLE update13 hours ago
Origin
Flag of USMaxar Intel (US)
ManufacturerMaxar Space Inf
BusLegion
MotorUnknown
Mass~700 kg wet, 630 kg dry
Launch date (UTC)
2024-05-02 (2 months ago)
Launch vehicle
Falcon 9
Launch site
Air Force Western Test Range (AFWTR)
Object type
Payload
Rocket body
Debris
Radar Cross SectionLarge (>1 m²)
Predictive object data (real-time)
Latitude58.2926°
Longitude0.20029°
Altitude524.16 km
Speed7.608 km/s
Apparent Right ascension12h 00m 34s
Apparent Declination16° 21' 55"
Sunlit
Object is in daylight
Predictive observer data (real-time)
Local Sidereal Time21:32:58
Azimuth320.882° NNW
Elevation-24.06°
Doppler factor1
Orbital elements
Apogee515.409 km
Perigee510.356 km
Semi-major axis6,891.019 km
Eccentricity0.0003666
Inclination97.5761°
RAAN245.9653°
Arg. of periapsis9.9821°
True anomaly350.14121°
Mean anomaly350.1484°
Mean motion3.79418 °/min
BSTAR0.00032879
Period94.88 mins
Definitive object data (Epoch: 2024-06-22T21:29:33.03Z)
Latitude-0.00004°
Longitude12.02539°
Altitude516.495 km
Speed7.607 km/s
True Right ascension16h 23m 51s
True Declination0° 00' 00"
Sunlit
Object was in full shadow at TLE epoch
TLE from 13 hours ago
0 LEGION 1
1 59625U 24081A   24174.89552119  .00006370  00000-0  32879-3 0  9998
2 59625  97.5761 245.9653 0003666   9.9821 350.1484 15.16672798  7743
Epoch: 2024-06-22T21:29Z
No data available
Other satellites on launch #81 in the year 2024 (2024-05-02 UTC)

LEGION 1 Visibility forecast

Observer location: 39.9160978°, -105.1181434, 0m alt.

LEGION 1 is not visible in the next 10 days
Span
Click to sort rows by Start time (UTC) header in descending order
Start Az.
Max El. time (UTC)
Max El. Az.
Max El.
End time (UTC)
End Az.